SCP
27 18 7 2 1 1 2 4 4 8 17 27 29 27 23 20 15 11 11 12 12 13 16 18 20 20 19 19 18 16 16 18 17 15 18 28 35 34 28 25 20 16 15 16 15 15 16 17 18
19 13 6 1 0 1 2 3 5 11 25 34 31 26 22 20 16 12 12 13 12 12 16 20 22 23 23 24 25 22 19 19 19 18 19 24 32 34 31 28 24 20 17 17 16 16 17 18 19
8 7 5 2 1 1 2 4 6 14 30 36 30 22 19 18 16 13 12 11 9 9 14 20 25 26 26 28 30 29 25 22 21 21 20 22 27 32 34 33 30 26 21 20 20 20 20 20 20
3 4 5 5 4 3 3 4 6 14 27 32 24 17 14 12 12 11 9 6 5 6 10 17 24 27 28 29 30 29 28 26 25 25 24 23 25 28 31 35 36 33 28 25 24 25 24 22 21
1 2 5 6 6 4 3 3 7 16 26 27 21 14 10 7 6 6 5 3 2 3 6 11 17 23 28 30 30 29 29 28 28 28 27 26 26 27 28 32 37 37 34 32 31 30 29 26 23
0 1 3 3 4 3 3 3 10 21 28 26 19 12 8 4 3 4 3 3 2 2 3 5 8 14 21 26 28 28 28 28 29 30 29 28 28 27 26 28 32 34 36 39 38 36 34 30 26
0 0 1 1 1 2 4 6 14 24 29 26 18 10 5 3 3 4 4 3 2 2 2 2 3 5 10 15 19 21 23 26 28 29 28 27 26 25 25 27 29 30 34 41 45 42 38 34 30
0 0 0 0 0 2 6 11 17 22 24 22 15 8 4 3 4 4 4 3 2 2 2 2 2 2 3 6 10 13 17 21 24 26 27 25 23 23 25 28 28 28 31 40 47 46 42 37 33
0 0 0 0 0 3 9 16 18 17 17 15 11 7 4 4 5 5 4 3 2 2 2 2 2 2 1 2 4 7 10 14 16 18 21 21 19 20 23 26 27 26 27 34 44 48 45 38 33
0 0 0 0 1 4 12 19 20 17 14 11 9 6 5 5 6 5 4 3 3 3 2 2 2 2 2 1 2 2 4 5 6 8 12 14 15 16 18 21 22 23 23 27 38 49 49 39 31
0 0 0 0 1 4 10 18 22 20 15 10 7 7 6 6 6 5 4 4 3 3 2 2 2 2 2 2 1 1 1 1 2 3 6 9 12 14 15 16 17 19 20 21 30 45 48 37 29
0 0 0 1 1 3 8 14 20 20 15 10 7 7 6 6 5 5 4 4 4 3 3 2 2 2 2 2 2 1 1 1 1 2 4 6 9 11 12 12 12 13 14 14 19 32 37 32 26
0 0 1 1 1 4 9 15 17 15 11 7 6 6 6 5 4 4 4 4 4 4 3 3 2 2 2 2 2 1 1 1 1 1 3 4 6 8 9 8 7 7 8 9 11 17 23 24 23
0 0 0 1 1 5 12 17 15 11 7 5 5 5 6 5 5 4 4 4 4 4 3 3 2 2 2 2 2 1 1 1 1 1 1 3 5 6 7 6 5 4 4 5 7 10 14 17 18
0 0 0 0 1 5 12 17 15 10 6 6 5 5 6 5 5 6 6 5 4 4 4 3 3 3 2 2 2 2 2 1 1 1 1 2 3 5 5 5 4 4 4 4 5 7 10 12 13
0 0 0 0 0 3 8 15 16 12 7 7 6 6 6 5 6 7 7 5 4 4 5 4 4 3 3 2 2 2 2 1 1 1 1 1 1 2 2 3 3 3 4 4 4 5 7 9 9
0 0 0 0 0 1 5 13 17 14 9 8 7 7 6 5 6 7 6 5 5 6 6 5 4 3 2 2 2 1 1 1 1 1 1 1 1 1 1 1 1 1 2 3 4 4 5 6 6
0 0 0 0 0 1 5 13 18 15 11 9 8 7 7 6 5 5 5 4 5 5 6 5 3 2 2 2 1 1 1 1 1 1 1 1 1 1 0 0 0 0 1 1 2 2 3 3 3
0 0 0 0 0 1 7 15 16 12 10 9 8 7 7 6 4 4 4 3 3 4 4 3 3 2 1 1 1 1 1 1 1 1 1 1 1 0 0 0 0 0 0 0 0 1 1 1 1
0 0 0 0 0 1 7 14 14 9 8 8 8 7 6 5 5 4 4 3 3 2 2 2 2 1 1 1 1 1 1 1 1 0 0 0 0 0 0 0 0 0 0 0 0 0 0 0 0
0 0 0 0 0 1 5 11 12 9 8 9 8 7 6 5 5 5 4 4 3 2 2 2 1 1 1 1 1 1 1 1 0 0 0 0 0 0 0 0 0 0 0 0 0 0 0 0 0
0 0 0 0 0 0 2 6 8 9 10 10 9 7 5 5 5 5 4 4 3 2 2 1 1 1 1 1 1 1 1 0 0 0 0 0 0 0 0 0 0 0 0 0 0 0 0 0 0
0 0 0 0 0 0 1 1 4 10 16 15 11 7 5 5 5 5 4 3 2 2 1 1 1 1 1 1 1 1 0 0 0 0 0 0 0 0 0 0 0 0 0 0 0 0 0 0 0
0 0 0 0 0 0 0 0 2 10 19 22 15 8 5 5 4 4 4 3 2 1 1 1 0 0 0 0 0 0 0 0 0 0 0 0 0 0 0 0 0 0 0 0 0 0 0 0 0
0 0 0 0 0 0 0 0 1 6 15 23 20 11 6 4 4 3 3 2 1 1 0 0 0 0 0 0 0 0 0 0 0 0 0 0 0 0 0 0 0 0 0 0 0 0 0 0 0
0 0 0 0 0 0 0 0 1 3 9 18 23 18 9 4 3 3 2 1 1 1 1 0 0 0 0 0 0 0 0 0 0 0 0 0 0 0 0 0 0 0 0 0 0 0 0 0 0
0 0 0 0 0 0 0 1 1 2 4 13 24 24 13 4 2 2 1 1 1 1 1 0 0 0 0 0 0 0 0 0 0 0 0 0 0 0 0 0 0 0 0 0 0 0 0 0 0
1 0 0 0 0 0 0 1 1 1 1 7 19 24 15 4 1 1 1 1 2 2 1 0 0 0 0 0 0 0 0 0 0 0 0 0 0 0 0 0 0 0 0 0 0 0 0 0 0
1 1 0 0 0 0 0 1 1 1 1 2 9 15 11 4 1 1 1 1 2 2 1 1 0 0 0 0 0 0 0 0 0 0 0 0 0 0 0 0 0 0 0 0 0 0 0 0 0
2 1 0 0 0 0 0 0 1 1 1 1 4 7 5 2 1 1 1 1 2 2 2 1 0 0 0 0 0 0 0 0 0 0 0 0 0 0 0 0 0 0 0 0 0 0 0 0 0
Wind_Speed
5 4 2 1 3 3 2 3 3 2 1 4 9 10 8 5 3 5 4 13 16 15 12 16 18 18 18 17 17 17 17 17 16 16 16 15 15 15 15 14 14 14 14 14 13 13 13 13 12
3 3 1 2 3 1 3 3 3 2 6 7 9 9 8 6 7 8 7 13 17 15 11 13 19 18 18 18 17 17 17 16 16 15 15 15 14 14 14 14 14 13 13 13 13 13 12 12 11
3 2 2 3 1 3 3 1 3 4 6 5 5 6 6 5 7 6 9 15 14 12 10 14 20 19 18 18 17 16 16 16 15 15 14 14 14 14 14 14 13 13 13 13 12 12 11 11 10
1 2 3 2 3 5 4 4 4 6 5 5 7 6 4 3 5 10 16 16 15 11 9 13 19 18 18 17 17 16 16 15 15 14 14 13 13 13 13 13 13 12 12 12 11 11 10 10 9
2 3 2 2 4 3 3 6 6 6 5 5 8 6 4 5 11 17 17 15 15 11 9 12 18 18 17 17 17 16 16 15 14 14 13 13 12 12 13 12 12 11 11 11 10 9 9 8 7
2 3 2 2 4 4 2 5 9 11 9 8 8 6 3 3 11 14 15 14 13 12 9 11 17 17 17 17 16 16 15 15 15 14 13 13 12 12 12 12 11 11 10 10 9 8 7 7 6
3 1 2 3 3 4 1 3 9 11 9 6 8 8 5 4 8 12 13 12 12 11 9 8 9 12 16 16 16 15 15 14 14 14 13 12 12 12 11 11 11 10 10 9 8 7 6 5 4
4 2 2 2 2 2 2 4 7 10 8 7 6 8 8 8 10 12 12 10 10 9 8 7 7 7 7 9 14 15 15 14 13 13 13 12 12 11 11 10 10 10 9 8 7 6 5 3 2
2 2 3 3 2 1 4 7 5 7 9 5 3 5 10 15 14 14 12 9 8 8 6 7 7 6 6 7 11 11 13 13 12 10 12 10 5 5 6 8 10 10 9 8 7 5 4 2 0
4 3 6 4 3 1 4 7 6 6 8 5 6 8 13 14 14 16 14 12 10 9 7 6 7 7 6 7 6 4 5 5 4 4 5 4 3 3 5 7 9 9 8 7 6 5 3 1 0
5 5 4 4 3 2 4 5 4 8 4 5 10 13 12 13 12 13 12 11 10 9 8 6 6 7 6 4 5 3 2 3 3 4 4 3 3 2 3 2 3 3 4 2 2 2 1 1 0
3 4 4 3 2 2 4 5 5 4 6 9 12 13 11 11 10 11 11 11 10 9 8 6 6 6 6 6 5 4 3 3 2 3 4 3 3 3 3 2 2 1 1 1 1 1 1 1 1
2 4 4 2 1 4 8 7 7 6 9 12 13 13 12 11 9 8 9 9 10 10 7 6 6 6 6 5 4 5 4 3 3 3 3 4 4 3 3 2 2 2 1 2 2 2 2 1 1
2 1 2 1 1 3 8 6 6 6 11 13 12 10 11 10 10 10 9 9 9 10 8 6 5 6 6 5 4 4 4 3 3 3 4 4 3 3 3 2 2 1 1 2 2 2 2 1 1
0 2 4 3 0 2 6 4 4 10 12 12 11 10 10 9 9 10 9 10 10 10 9 7 6 5 6 6 6 5 4 4 3 3 3 4 4 4 3 3 2 1 1 2 2 1 2 1 1
4 3 3 5 1 2 6 3 5 10 12 11 10 10 9 7 8 8 8 8 8 9 8 7 8 7 6 5 5 4 4 4 3 3 3 4 4 4 4 3 2 1 2 2 2 2 2 1 1
3 1 4 6 3 2 5 4 7 9 11 11 11 10 10 8 7 7 8 8 7 8 8 7 6 6 6 6 6 5 5 4 3 3 3 3 4 4 4 3 2 2 2 2 2 2 2 1 0
5 4 4 6 4 2 3 4 8 9 11 11 11 10 10 9 8 8 8 8 7 7 7 7 6 5 6 5 5 4 4 3 3 3 3 4 3 4 4 3 3 3 3 2 2 2 2 1 0
6 5 7 8 5 3 5 6 8 9 9 10 9 9 9 8 6 7 8 8 8 6 6 6 6 5 5 4 4 4 3 3 3 3 4 4 4 4 4 3 3 3 3 2 2 2 2 2 1
7 6 7 6 4 3 4 5 6 8 9 11 12 12 11 8 8 7 7 8 7 7 6 6 6 6 5 4 3 3 4 3 3 2 3 4 4 4 4 4 3 3 3 4 3 3 2 2 2
7 6 7 6 1 2 3 1 2 3 3 6 9 10 12 13 13 11 9 8 8 8 7 7 6 6 5 5 4 4 4 3 3 3 2 2 4 4 4 4 4 4 3 3 3 3 3 2 2
7 9 7 5 3 1 2 2 5 5 5 8 9 11 12 12 12 11 10 9 9 8 7 7 6 6 5 6 6 7 5 4 3 3 2 2 4 4 4 4 4 4 3 3 3 3 2 3 2
7 5 3 3 4 1 1 2 5 4 6 10 12 13 13 14 14 13 12 11 9 9 8 7 6 5 5 6 7 7 5 4 3 3 4 3 2 3 4 5 5 4 3 4 4 3 3 2 2
3 1 4 4 5 1 3 2 5 6 10 10 12 14 14 14 14 12 11 10 8 8 8 7 7 5 5 6 6 8 8 7 7 5 4 2 2 2 4 5 4 4 3 3 3 3 4 3 3
2 3 4 5 4 4 3 2 8 8 8 11 13 14 14 14 14 13 13 12 11 11 10 8 8 6 6 6 6 7 8 8 8 6 5 4 2 2 2 4 3 3 3 3 3 3 3 3 3
3 7 6 4 4 4 2 4 7 5 6 8 11 13 14 14 14 14 14 14 13 13 11 10 9 7 7 6 6 6 7 5 4 5 5 4 3 3 3 4 3 3 3 3 3 2 2 2 2
2 2 6 7 2 1 4 5 6 1 4 8 10 13 16 16 15 15 14 14 13 13 12 11 10 8 8 7 6 6 6 5 5 5 5 4 4 4 4 4 4 3 3 3 3 2 2 2 2
4 3 4 5 5 2 4 4 5 4 5 7 10 13 15 15 15 15 14 14 13 12 11 10 10 9 8 8 7 6 6 6 6 5 6 5 4 4 5 4 4 3 3 3 3 2 1 2 1
2 3 3 3 5 5 3 7 7 9 8 10 11 13 14 16 16 15 14 13 13 12 11 10 10 8 8 8 6 7 6 6 6 6 6 6 4 5 5 4 4 3 3 3 3 2 2 2 1
4 4 5 5 3 4 3 9 6 7 7 8 10 12 14 16 16 15 15 13 13 13 12 12 11 10 9 8 7 7 6 6 6 6 6 6 5 5 5 4 4 3 3 3 3 2 2 2 2
Wind_Direction
200 200 181 71 53 41 269 236 211 190 54 60 86 94 97 84 120 145 142 144 141 143 144 141 139 136 133 130 128 127 124 122 120 118 117 115 114 113 112 111 109 108 107 107 108 107 106 107 107
193 197 131 58 76 358 270 215 206 167 128 111 81 82 78 72 79 107 125 141 140 139 140 142 140 138 135 133 132 131 129 127 125 123 122 120 118 117 115 114 112 111 110 109 110 109 107 106 105
225 189 105 85 128 210 260 220 174 117 113 104 82 65 72 98 110 128 143 140 135 135 137 145 141 140 138 136 135 134 133 131 129 128 126 124 123 120 119 117 115 114 113 112 111 110 109 107 105
145 64 51 77 247 248 233 224 170 135 85 73 101 74 57 75 121 133 136 138 134 133 136 144 142 141 140 139 138 137 136 135 133 132 131 129 127 125 123 121 120 117 116 115 114 114 111 107 103
87 87 53 318 270 269 234 183 154 123 103 86 89 86 47 28 109 127 136 138 134 133 136 142 143 143 142 142 142 140 140 139 138 137 135 133 131 129 127 126 126 124 121 120 120 117 113 108 100
55 79 86 275 279 292 261 148 126 110 116 117 108 101 65 89 116 133 136 132 134 134 136 141 145 145 146 145 144 143 144 145 143 140 138 138 136 134 133 132 132 131 129 127 126 122 118 112 103
152 130 215 241 276 287 250 127 113 118 117 128 130 115 120 130 129 131 130 129 132 133 135 137 144 147 149 147 146 147 147 148 148 145 144 144 144 142 141 139 139 139 139 137 135 133 128 120 108
167 109 304 283 266 274 154 99 109 117 117 128 129 134 148 159 137 125 124 125 130 132 136 136 138 141 143 146 150 150 150 152 152 151 151 151 151 151 150 147 148 149 148 148 147 146 143 135 123
146 91 261 250 250 294 116 101 84 102 116 113 112 127 140 140 132 124 124 123 128 134 140 141 141 141 140 147 156 153 153 155 154 154 156 151 149 152 155 160 160 159 158 159 161 163 163 163 208
137 171 229 216 211 199 109 115 126 104 100 100 94 105 129 132 136 134 135 140 141 146 149 147 147 146 150 158 146 148 150 148 144 147 148 143 153 169 168 175 171 169 168 172 176 181 183 174 20
175 195 232 254 252 150 110 91 94 123 109 145 139 134 135 131 135 138 140 145 146 147 146 146 151 153 153 139 143 140 136 140 145 152 154 148 145 153 148 151 164 169 175 174 183 192 192 170 156
204 244 240 252 261 128 114 112 87 100 144 144 140 136 133 131 135 139 145 147 145 144 145 154 154 153 151 143 147 147 147 153 156 166 161 144 138 138 145 150 148 152 150 169 173 181 197 167 208
210 253 271 250 82 107 101 100 104 110 127 133 134 132 138 138 137 136 139 144 143 145 157 163 154 151 150 141 146 143 145 147 146 144 147 141 138 142 141 143 143 157 151 157 163 169 165 156 164
213 256 304 292 101 110 107 104 106 138 138 138 139 139 142 142 141 139 143 142 148 153 159 154 149 147 140 139 137 136 138 136 129 129 134 133 133 137 138 138 137 144 154 160 165 173 162 153 133
212 352 330 321 49 133 108 75 132 150 144 143 147 144 140 143 139 144 154 152 159 158 157 149 149 143 138 139 141 135 137 136 127 126 115 117 122 130 132 130 125 133 137 128 115 114 108 118 119
11 23 323 295 277 192 118 174 177 158 151 152 153 147 143 141 140 142 146 146 153 155 153 154 150 144 143 137 130 127 125 120 119 115 109 112 115 120 116 113 110 107 104 110 113 101 97 92 105
5 301 273 290 260 176 135 178 182 169 157 158 157 153 149 140 134 139 143 142 148 151 146 137 136 138 136 127 122 121 120 120 121 112 110 109 109 113 108 101 91 86 83 82 106 93 113 125 144
251 252 266 269 264 134 146 175 167 174 167 163 158 155 154 152 150 149 143 145 143 142 137 134 133 133 125 115 107 106 105 110 110 109 110 106 101 106 105 98 87 86 82 67 73 83 76 114 155
239 244 262 264 229 172 181 174 174 175 170 161 160 161 158 151 146 145 145 149 143 138 136 140 138 137 128 123 124 127 128 123 111 114 116 112 105 103 97 96 89 86 88 84 82 87 68 43 59
247 247 258 269 232 163 167 184 183 177 181 171 167 165 158 147 147 152 151 152 149 144 144 144 144 142 141 138 138 135 131 128 118 107 104 110 107 108 104 97 95 92 89 72 62 71 77 32 50
251 226 230 227 221 78 117 87 197 193 165 166 169 164 160 162 161 163 162 156 152 154 157 153 150 147 149 139 119 110 93 83 80 91 91 101 109 105 103 103 98 91 92 89 76 76 88 69 21
251 239 220 204 139 243 150 195 244 200 182 180 177 173 169 167 164 163 163 160 162 161 153 147 147 144 143 136 134 140 139 143 156 150 129 109 108 113 112 107 101 93 92 91 81 81 89 97 59
233 246 221 165 141 104 6 155 263 186 197 199 186 182 176 172 169 169 168 165 161 155 149 145 138 133 133 133 141 141 139 140 134 126 119 104 95 105 109 109 104 100 95 93 84 79 78 87 97
208 13 24 49 75 36 247 184 257 211 209 198 186 183 178 174 172 169 165 157 155 152 149 144 139 136 134 131 134 139 142 140 136 135 133 120 101 92 106 109 105 106 101 97 94 86 84 83 85
56 77 23 358 8 258 255 212 246 225 206 191 182 180 177 174 171 167 164 162 161 159 157 153 148 144 143 137 137 141 142 144 148 152 150 141 129 123 127 114 113 112 113 106 97 84 78 82 84
218 147 163 197 232 266 285 242 259 255 215 185 174 172 172 173 174 173 171 169 167 165 162 160 158 155 153 147 144 141 140 142 144 149 148 152 153 153 144 132 129 120 115 109 97 85 85 87 83
152 167 165 138 151 275 277 288 299 292 148 158 165 170 175 177 176 175 174 172 170 168 169 169 164 159 159 156 147 144 144 146 145 145 140 145 150 149 141 135 129 123 117 113 103 92 85 88 84
136 150 99 120 146 242 279 257 242 226 183 171 173 179 179 177 175 175 176 175 174 172 171 169 166 165 163 158 157 154 151 149 147 140 141 145 148 140 138 138 140 138 130 125 115 106 93 103 95
76 76 100 117 144 158 237 262 224 208 195 182 183 182 180 178 177 177 178 176 173 170 170 169 169 163 164 164 160 151 155 151 147 145 151 150 148 149 149 153 153 152 149 141 129 142 134 126 105
153 148 139 147 193 167 181 264 259 204 199 186 184 184 182 178 178 177 176 172 171 173 173 173 173 171 171 166 160 160 159 152 152 156 159 155 155 163 163 160 160 168 165 161 156 167 153 154 164